,,,PA_Meas_PMT16A,,PR_Meas_QMR101_102,,RH_Meas_QMH101,,SR_Meas_QMS101,,TA_Meas_QMH101,,GenWind,,GenWind,
date,time,status,PA,status,PR,status,RH,status,SR,status,TA,status,DirAvg,status,SpdAvg,
2009-07-20, 00:00:04,VALID,1005.49,VALID,0,VALID,81.4536,VALID,0,VALID,26.118,VALID,308,VALID,1.02461,
2009-07-20, 00:01:04,VALID,1005.5,VALID,0,VALID,81.5222,VALID,0,VALID,26.0771,VALID,319,VALID,0.689453,
2009-07-20, 00:02:04,VALID,1005.45,VALID,0,VALID,81.4002,VALID,0,VALID,26.0791,VALID,324,VALID,0.878516,
2009-07-20, 00:03:04,VALID,1005.43,VALID,0,VALID,81.3162,VALID,0,VALID,26.0791,VALID,294,VALID,1.18125,
2009-07-20, 00:04:04,VALID,1005.44,VALID,0,VALID,81.2018,VALID,0,VALID,26.0791,VALID,296,VALID,1.26719,
2009-07-20, 00:05:04,VALID,1005.37,VALID,0,VALID,81.1865,VALID,0,VALID,26.1005,VALID,290,VALID,1.26055,
2009-07-20, 00:06:04,VALID,1005.39,VALID,0,VALID,81.3544,VALID,0,VALID,26.0576,VALID,245,VALID,0.353516,
2009-07-20, 00:07:04,VALID,1005.39,VALID,0,VALID,81.5146,VALID,0,VALID,26.0576,VALID,293,VALID,0.639063,
2009-07-20, 00:08:04,VALID,1005.38,VALID,0,VALID,81.6214,VALID,0,VALID,26.0791,VALID,294,VALID,0.293359,
2009-07-20, 00:09:04,VALID,1005.4,VALID,0,VALID,81.4993,VALID,0,VALID,26.0596,VALID,308,VALID,0.859375,
2009-07-20, 00:10:04,VALID,1005.39,VALID,0,VALID,81.6367,VALID,0,VALID,26.0596,VALID,294,VALID,0.657812,
2009-07-20, 00:11:04,VALID,1005.37,VALID,0,VALID,81.5985,VALID,0,VALID,26.0596,VALID,294,VALID,0.607813,
2009-07-20, 00:12:04,VALID,1005.31,VALID,0,VALID,81.8274,VALID,0,VALID,26.0596,VALID,262,VALID,0.788281,
2009-07-20, 00:13:04,VALID,1005.3,VALID,0,VALID,81.6138,VALID,0,VALID,26.0596,VALID,310,VALID,0.564453,
2009-07-20, 00:14:04,VALID,1005.29,VALID,0,VALID,81.7206,VALID,0,VALID,26.0791,VALID,314,VALID,0.570703,
2009-07-20, 00:15:04,VALID,1005.3,VALID,0,VALID,81.9418,VALID,0,VALID,26.0791,VALID,307,VALID,0.518359,
2009-07-20, 00:16:04,VALID,1005.28,VALID,0,VALID,81.629,VALID,0,VALID,26.118,VALID,314,VALID,0.655078,
2009-07-20, 00:17:04,VALID,1005.28,VALID,0,VALID,81.7282,VALID,0,VALID,26.1375,VALID,301,VALID,0.351953,
2009-07-20, 00:18:04,VALID,1005.24,VALID,0,VALID,82.0181,VALID,0,VALID,26.1375,VALID,267,VALID,0.587109,
2009-07-20, 00:19:04,VALID,1005.23,VALID,0,VALID,81.896,VALID,0,VALID,26.1375,VALID,241,VALID,0.619922,
2009-07-20, 00:20:04,VALID,1005.22,VALID,0,VALID,81.629,VALID,0,VALID,26.1375,VALID,241,VALID,0.899219,
2009-07-20, 00:21:04,VALID,1005.17,VALID,0,VALID,81.6443,VALID,0,VALID,26.157,VALID,272,VALID,0.920313,
2009-07-20, 00:22:04,VALID,1005.2,VALID,0,VALID,81.3773,VALID,0,VALID,26.1765,VALID,277,VALID,0.935156,
2009-07-20, 00:23:04,VALID,1005.18,VALID,0,VALID,81.2781,VALID,0,VALID,26.2154,VALID,240,VALID,0.428125,
2009-07-20, 00:24:04,VALID,1005.15,VALID,0,VALID,81.3925,VALID,0,VALID,26.2154,VALID,308,VALID,0.778125,
2009-07-20, 00:25:04,VALID,1005.13,VALID,0,VALID,81.2552,VALID,0,VALID,26.2349,VALID,274,VALID,1.19766,
2009-07-20, 00:26:04,VALID,1005.11,VALID,0,VALID,81.4688,VALID,0,VALID,26.2349,VALID,272,VALID,0.908203,
2009-07-20, 00:27:04,VALID,1005.12,VALID,0,VALID,81.4002,VALID,0,VALID,26.194,VALID,271,VALID,1.27188,
2009-07-20, 00:28:04,VALID,1005.09,VALID,0,VALID,81.507,VALID,0,VALID,26.194,VALID,106,VALID,0.521094,
2009-07-20, 00:29:04,VALID,1005.08,VALID,0,VALID,81.4307,VALID,0,VALID,26.194,VALID,294,VALID,0.835938,
2009-07-20, 00:30:04,VALID,1005.06,VALID,0,VALID,81.3925,VALID,0,VALID,26.2349,VALID,141,VALID,0.3875,
2009-07-20, 00:31:04,VALID,1005.05,VALID,0,VALID,81.5146,VALID,0,VALID,26.2349,VALID,138,VALID,1.08203,
2009-07-20, 00:32:04,VALID,1005.03,VALID,0,VALID,81.5527,VALID,0,VALID,26.2349,VALID,108,VALID,0.540625,
2009-07-20, 00:33:04,VALID,1005.06,VALID,0,VALID,81.5832,VALID,0,VALID,26.1959,VALID,309,VALID,0.631641,
2009-07-20, 00:34:04,VALID,1005.05,VALID,0,VALID,81.7358,VALID,0,VALID,26.1959,VALID,282,VALID,1.37422,
2009-07-20, 00:35:04,VALID,1005.03,VALID,0,VALID,81.6214,VALID,0,VALID,26.1959,VALID,294,VALID,1.16328,
2009-07-20, 00:36:04,VALID,1005.07,VALID,0,VALID,81.5985,VALID,0,VALID,26.194,VALID,273,VALID,0.867578,
2009-07-20, 00:37:04,VALID,1005.05,VALID,0,VALID,81.7129,VALID,0,VALID,26.1959,VALID,291,VALID,0.85625,
2009-07-20, 00:38:04,VALID,1005.03,VALID,0,VALID,81.7663,VALID,0,VALID,26.2154,VALID,286,VALID,0.489844,
2009-07-20, 00:39:04,VALID,1005.03,VALID,0,VALID,81.4459,VALID,0,VALID,26.2154,VALID,278,VALID,1.22852,
2009-07-20, 00:40:04,VALID,1005.03,VALID,0,VALID,81.5527,VALID,0,VALID,26.2544,VALID,335,VALID,0.642969,
2009-07-20, 00:41:04,VALID,1005.05,VALID,0,VALID,81.5451,VALID,0,VALID,26.2544,VALID,300,VALID,0.851953,
2009-07-20, 00:42:04,VALID,1005.1,VALID,0,VALID,81.6519,VALID,0,VALID,26.2134,VALID,217,VALID,0.478906,
2009-07-20, 00:43:04,VALID,1005.12,VALID,0,VALID,81.7435,VALID,0,VALID,26.2349,VALID,215,VALID,0.294922,
2009-07-20, 00:44:04,VALID,1005.08,VALID,0,VALID,81.7511,VALID,0,VALID,26.2154,VALID,305,VALID,0.366797,
2009-07-20, 00:45:04,VALID,1005.13,VALID,0,VALID,81.8503,VALID,0,VALID,26.1745,VALID,288,VALID,0.516016,
2009-07-20, 00:46:04,VALID,1005.16,VALID,0,VALID,82.1554,VALID,0,VALID,26.1765,VALID,305,VALID,0.522656,
2009-07-20, 00:47:04,VALID,1005.15,VALID,0,VALID,82.1173,VALID,0,VALID,26.157,VALID,314,VALID,0.626953,
2009-07-20, 00:48:04,VALID,1005.14,VALID,0,VALID,82.2851,VALID,0,VALID,26.157,VALID,279,VALID,0.757031,
2009-07-20, 00:49:04,VALID,1005.09,VALID,0,VALID,82.2622,VALID,0,VALID,26.159,VALID,323,VALID,0.545313,
2009-07-20, 00:50:04,VALID,1005.1,VALID,0,VALID,82.5292,VALID,0,VALID,26.1005,VALID,333,VALID,0.398438,
2009-07-20, 00:51:04,VALID,1005.06,VALID,0,VALID,82.7123,VALID,0,VALID,26.0791,VALID,329,VALID,0.716406,
2009-07-20, 00:52:04,VALID,1005.05,VALID,0,VALID,82.8344,VALID,0,VALID,26.0596,VALID,322,VALID,0.448438,
2009-07-20, 00:53:04,VALID,1005.05,VALID,0,VALID,82.903,VALID,0,VALID,26.0401,VALID,293,VALID,0.692187,
2009-07-20, 00:54:04,VALID,1005.02,VALID,0,VALID,83.0861,VALID,0,VALID,26.0206,VALID,295,VALID,0.627734,
2009-07-20, 00:55:04,VALID,1005.05,VALID,0,VALID,83.2311,VALID,0,VALID,26.0206,VALID,301,VALID,0.670703,
2009-07-20, 00:56:04,VALID,1005.05,VALID,0,VALID,83.2235,VALID,0,VALID,26.0012,VALID,301,VALID,0.503906,
2009-07-20, 00:57:04,VALID,1005.1,VALID,0,VALID,83.4828,VALID,0,VALID,25.9817,VALID,300,VALID,0.509766,
2009-07-20, 00:58:04,VALID,1005.07,VALID,0,VALID,83.254,VALID,0,VALID,25.9817,VALID,283,VALID,0.552344,
2009-07-20, 00:59:04,VALID,1005.07,VALID,0,VALID,83.1243,VALID,0,VALID,25.9817,VALID,319,VALID,0.999609,
2009-07-20, 01:00:04,VALID,1005.08,VALID,0,VALID,83.1624,VALID,0,VALID,25.9817,VALID,286,VALID,0.586719,
2009-07-20, 01:01:04,VALID,1005.07,VALID,0,VALID,83.3226,VALID,0,VALID,25.9817,VALID,279,VALID,0.327734,
2009-07-20, 01:02:04,VALID,1005.07,VALID,0,VALID,83.376,VALID,0,VALID,25.9427,VALID,311,VALID,0.592969,
2009-07-20, 01:03:04,VALID,1005.06,VALID,0,VALID,83.5134,VALID,0,VALID,25.9232,VALID,310,VALID,0.684766,
2009-07-20, 01:04:04,VALID,1005.05,VALID,0,VALID,83.5286,VALID,0,VALID,25.9232,VALID,325,VALID,0.678125,
2009-07-20, 01:05:04,VALID,1005.06,VALID,0,VALID,83.4981,VALID,0,VALID,25.9232,VALID,305,VALID,1.38516,
2009-07-20, 01:06:04,VALID,1005.01,VALID,0,VALID,83.6964,VALID,0,VALID,25.9232,VALID,329,VALID,0.439453,
2009-07-20, 01:07:04,VALID,1005.01,VALID,0,VALID,83.6964,VALID,0,VALID,25.9038,VALID,322,VALID,0.359766,
2009-07-20, 01:08:04,VALID,1005.02,VALID,0,VALID,83.7804,VALID,0,VALID,25.9232,VALID,261,VALID,0.530859,
2009-07-20, 01:09:04,VALID,1005.01,VALID,0,VALID,83.7651,VALID,0,VALID,25.9038,VALID,263,VALID,0.290625,
2009-07-20, 01:10:04,VALID,1005.03,VALID,0,VALID,83.8109,VALID,0,VALID,25.8843,VALID,316,VALID,0.754687,
2009-07-20, 01:11:04,VALID,1004.96,VALID,0,VALID,83.7346,VALID,0,VALID,25.8648,VALID,306,VALID,1.65195,
2009-07-20, 01:12:04,VALID,1004.96,VALID,0,VALID,83.7346,VALID,0,VALID,25.8843,VALID,312,VALID,0.430859,
2009-07-20, 01:13:04,VALID,1004.98,VALID,0,VALID,83.9177,VALID,0,VALID,25.8453,VALID,303,VALID,0.705078,
2009-07-20, 01:14:04,VALID,1005,VALID,0,VALID,84.1084,VALID,0,VALID,25.8064,VALID,341,VALID,0.502344,
2009-07-20, 01:15:04,VALID,1004.99,VALID,0,VALID,84.2991,VALID,0,VALID,25.7869,VALID,296,VALID,0.0953125,
2009-07-20, 01:16:04,VALID,1004.98,VALID,0,VALID,84.4059,VALID,0,VALID,25.748,VALID,296,VALID,0.280078,
2009-07-20, 01:17:04,VALID,1004.97,VALID,0,VALID,84.5433,VALID,0,VALID,25.709,VALID,290,VALID,0.682422,
2009-07-20, 01:18:04,VALID,1004.94,VALID,0,VALID,84.6653,VALID,0,VALID,25.709,VALID,284,VALID,0.687891,
2009-07-20, 01:19:04,VALID,1004.89,VALID,0,VALID,84.8408,VALID,0,VALID,25.67,VALID,332,VALID,0.564453,
2009-07-20, 01:20:04,VALID,1004.89,VALID,0,VALID,84.9323,VALID,0,VALID,25.6915,VALID,284,VALID,0.671875,
2009-07-20, 01:21:04,VALID,1004.85,VALID,0,VALID,85.1459,VALID,0,VALID,25.6311,VALID,315,VALID,0.614453,
2009-07-20, 01:22:04,VALID,1004.81,VALID,0,VALID,85.2985,VALID,0,VALID,25.6525,VALID,346,VALID,0.395703,
2009-07-20, 01:23:04,VALID,1004.83,VALID,0,VALID,85.2146,VALID,0,VALID,25.6311,VALID,326,VALID,0.213672,
2009-07-20, 01:24:04,VALID,1004.78,VALID,0,VALID,85.2756,VALID,0,VALID,25.5902,VALID,287,VALID,0.686719,
2009-07-20, 01:25:04,VALID,1004.78,VALID,0,VALID,85.3519,VALID,0,VALID,25.6116,VALID,309,VALID,0.535156,
2009-07-20, 01:26:04,VALID,1004.78,VALID,0,VALID,85.2909,VALID,0.100563,VALID,25.6097,VALID,342,VALID,0.529297,
2009-07-20, 01:27:04,VALID,1004.75,VALID,0,VALID,85.3901,VALID,0,VALID,25.6311,VALID,303,VALID,0.141016,
2009-07-20, 01:28:04,VALID,1004.76,VALID,0,VALID,85.4892,VALID,0,VALID,25.6116,VALID,310,VALID,0.664453,
2009-07-20, 01:29:04,VALID,1004.71,VALID,0,VALID,85.596,VALID,0,VALID,25.6116,VALID,311,VALID,0.28125,
2009-07-20, 01:30:04,VALID,1004.68,VALID,0,VALID,85.5884,VALID,0.100563,VALID,25.6116,VALID,334,VALID,0.848047,
2009-07-20, 01:31:04,VALID,1004.69,VALID,0,VALID,85.68,VALID,0,VALID,25.5902,VALID,312,VALID,0.362891,
2009-07-20, 01:32:04,VALID,1004.68,VALID,0,VALID,85.7791,VALID,0.100563,VALID,25.5921,VALID,312,VALID,0.0816406,
2009-07-20, 01:33:04,VALID,1004.63,VALID,0,VALID,85.9012,VALID,0.100563,VALID,25.5532,VALID,314,VALID,0.259375,
2009-07-20, 01:34:04,VALID,1004.65,VALID,0,VALID,86.1529,VALID,0.100563,VALID,25.5337,VALID,319,VALID,0.216406,
2009-07-20, 01:35:04,VALID,1004.59,VALID,0,VALID,86.2979,VALID,0.100563,VALID,25.4948,VALID,358,VALID,0.141406,
2009-07-20, 01:36:04,VALID,1004.59,VALID,0,VALID,86.42,VALID,0.100563,VALID,25.4539,VALID,358,VALID,0.155859,
2009-07-20, 01:37:04,VALID,1004.59,VALID,0,VALID,86.5802,VALID,0,VALID,25.4344,VALID,329,VALID,0.403906,
2009-07-20, 01:38:04,VALID,1004.55,VALID,0,VALID,86.6412,VALID,0,VALID,25.4363,VALID,309,VALID,0.605078,
2009-07-20, 01:39:04,VALID,1004.58,VALID,0,VALID,86.6641,VALID,0,VALID,25.4363,VALID,300,VALID,0.482422,
2009-07-20, 01:40:04,VALID,1004.54,VALID,0,VALID,86.7022,VALID,0,VALID,25.3955,VALID,309,VALID,0.653906,
2009-07-20, 01:41:04,VALID,1004.53,VALID,0,VALID,86.7175,VALID,0,VALID,25.3955,VALID,297,VALID,0.6375,
2009-07-20, 01:42:04,VALID,1004.48,VALID,0,VALID,86.7861,VALID,0.100563,VALID,25.3955,VALID,286,VALID,0.203906,
2009-07-20, 01:43:04,VALID,1004.44,VALID,0,VALID,86.7327,VALID,0,VALID,25.3974,VALID,292,VALID,0.972656,
2009-07-20, 01:44:04,VALID,1004.44,VALID,0,VALID,86.5954,VALID,0,VALID,25.4149,VALID,290,VALID,1.06055,
2009-07-20, 01:45:04,VALID,1004.4,VALID,0,VALID,86.3666,VALID,0,VALID,25.4753,VALID,300,VALID,0.491797,
2009-07-20, 01:46:04,VALID,1004.41,VALID,0,VALID,86.2598,VALID,0,VALID,25.4948,VALID,299,VALID,0.284766,
2009-07-20, 01:47:04,VALID,1004.39,VALID,0,VALID,86.2521,VALID,0,VALID,25.5142,VALID,269,VALID,0.258594,
2009-07-20, 01:48:04,VALID,1004.36,VALID,0,VALID,86.2826,VALID,0,VALID,25.4948,VALID,272,VALID,0.164063,
2009-07-20, 01:49:04,VALID,1004.35,VALID,0,VALID,86.42,VALID,0,VALID,25.4967,VALID,272,VALID,0.185156,
2009-07-20, 01:50:04,VALID,1004.32,VALID,0,VALID,86.5496,VALID,0,VALID,25.4363,VALID,303,VALID,0.720312,
2009-07-20, 01:51:04,VALID,1004.32,VALID,0,VALID,86.6565,VALID,0.100563,VALID,25.3955,VALID,309,VALID,0.0335938,
2009-07-20, 01:52:04,VALID,1004.33,VALID,0,VALID,86.7709,VALID,0.100563,VALID,25.3584,VALID,311,VALID,0.155469,
2009-07-20, 01:53:04,VALID,1004.3,VALID,0,VALID,86.8929,VALID,0,VALID,25.2981,VALID,309,VALID,0.288281,
2009-07-20, 01:54:04,VALID,1004.29,VALID,0,VALID,86.9845,VALID,0,VALID,25.3,VALID,309,VALID,0.170312,
2009-07-20, 01:55:04,VALID,1004.29,VALID,0,VALID,87.1905,VALID,0,VALID,25.2611,VALID,306,VALID,0.489844,
2009-07-20, 01:56:04,VALID,1004.28,VALID,0,VALID,87.1066,VALID,0.100563,VALID,25.2592,VALID,305,VALID,0.740625,
2009-07-20, 01:57:04,VALID,1004.27,VALID,0,VALID,86.9464,VALID,0,VALID,25.3,VALID,343,VALID,0.322266,
2009-07-20, 01:58:04,VALID,1004.26,VALID,0,VALID,86.9464,VALID,0.100563,VALID,25.3,VALID,350,VALID,0.648828,
2009-07-20, 01:59:04,VALID,1004.25,VALID,0,VALID,86.954,VALID,0.100563,VALID,25.2786,VALID,354,VALID,0.649609,
2009-07-20, 02:00:04,VALID,1004.27,VALID,0,VALID,87.0684,VALID,0,VALID,25.2611,VALID,296,VALID,0.465625,
2009-07-20, 02:01:04,VALID,1004.25,VALID,0,VALID,87.1371,VALID,0,VALID,25.2611,VALID,360,VALID,0.307031,
2009-07-20, 02:02:04,VALID,1004.26,VALID,0,VALID,87.2057,VALID,0,VALID,25.2416,VALID,292,VALID,0.426953,
2009-07-20, 02:03:04,VALID,1004.28,VALID,0,VALID,87.3049,VALID,0.100563,VALID,25.2007,VALID,314,VALID,0.334375,
2009-07-20, 02:04:04,VALID,1004.25,VALID,0,VALID,87.4041,VALID,0,VALID,25.1813,VALID,350,VALID,0.375391,
2009-07-20, 02:05:04,VALID,1004.28,VALID,0,VALID,87.4956,VALID,0,VALID,25.1637,VALID,328,VALID,0.248047,
2009-07-20, 02:06:04,VALID,1004.29,VALID,0,VALID,87.6101,VALID,0,VALID,25.1832,VALID,292,VALID,1.25586,
2009-07-20, 02:07:04,VALID,1004.27,VALID,0,VALID,87.4346,VALID,0,VALID,25.2027,VALID,295,VALID,0.8875,
2009-07-20, 02:08:04,VALID,1004.24,VALID,0,VALID,87.3965,VALID,0.100563,VALID,25.1813,VALID,289,VALID,1.09141,
2009-07-20, 02:09:04,VALID,1004.26,VALID,0,VALID,87.2973,VALID,0,VALID,25.2007,VALID,297,VALID,0.0429688,
2009-07-20, 02:10:04,VALID,1004.25,VALID,0,VALID,87.221,VALID,0,VALID,25.2007,VALID,311,VALID,0.197656,
2009-07-20, 02:11:04,VALID,1004.24,VALID,0,VALID,87.3202,VALID,0,VALID,25.2007,VALID,301,VALID,0.451562,
2009-07-20, 02:12:04,VALID,1004.25,VALID,0,VALID,87.3888,VALID,0,VALID,25.2007,VALID,303,VALID,0.550391,
2009-07-20, 02:13:04,VALID,1004.27,VALID,0,VALID,87.4575,VALID,0,VALID,25.1813,VALID,303,VALID,0.852344,
2009-07-20, 02:14:04,VALID,1004.24,VALID,0,VALID,87.4499,VALID,0,VALID,25.1832,VALID,358,VALID,0.509375,
2009-07-20, 02:15:04,VALID,1004.26,VALID,0,VALID,87.4727,VALID,0,VALID,25.1813,VALID,350,VALID,0.690234,
2009-07-20, 02:16:04,VALID,1004.24,VALID,0,VALID,87.4956,VALID,0,VALID,25.1832,VALID,352,VALID,0.302344,
2009-07-20, 02:17:04,VALID,1004.24,VALID,0,VALID,87.6253,VALID,0,VALID,25.1442,VALID,350,VALID,0.480859,
2009-07-20, 02:18:04,VALID,1004.25,VALID,0,VALID,87.7474,VALID,0,VALID,25.1034,VALID,348,VALID,0.0515625,
2009-07-20, 02:19:04,VALID,1004.27,VALID,0,VALID,87.8618,VALID,0,VALID,25.1053,VALID,348,VALID,0.00351562,
2009-07-20, 02:20:04,VALID,1004.25,VALID,0,VALID,87.9839,VALID,0,VALID,25.0663,VALID,349,VALID,0.103906,
2009-07-20, 02:21:04,VALID,1004.28,VALID,0,VALID,88.1593,VALID,0,VALID,25.0469,VALID,349,VALID,0,
2009-07-20, 02:22:04,VALID,1004.25,VALID,0,VALID,88.3043,VALID,0,VALID,24.9671,VALID,349,VALID,0,
2009-07-20, 02:23:04,VALID,1004.23,VALID,0,VALID,88.3958,VALID,0,VALID,24.93,VALID,349,VALID,0,
2009-07-20, 02:24:04,VALID,1004.26,VALID,0,VALID,88.5942,VALID,0,VALID,24.8892,VALID,352,VALID,0.353906,
2009-07-20, 02:25:04,VALID,1004.24,VALID,0,VALID,88.8307,VALID,0,VALID,24.8697,VALID,345,VALID,0.382422,
2009-07-20, 02:26:04,VALID,1004.23,VALID,0,VALID,89.0061,VALID,0,VALID,24.8522,VALID,355,VALID,0.743359,
2009-07-20, 02:27:04,VALID,1004.25,VALID,0,VALID,89.1511,VALID,0,VALID,24.8113,VALID,359,VALID,0.473437,
2009-07-20, 02:28:04,VALID,1004.25,VALID,0,VALID,89.1053,VALID,0,VALID,24.8327,VALID,359,VALID,0.215625,
2009-07-20, 02:29:04,VALID,1004.26,VALID,0,VALID,89.235,VALID,0,VALID,24.7529,VALID,334,VALID,0.582031,
2009-07-20, 02:30:04,VALID,1004.25,VALID,0,VALID,89.2426,VALID,0,VALID,24.7548,VALID,297,VALID,0,
2009-07-20, 02:31:04,VALID,1004.23,VALID,0,VALID,89.3342,VALID,0,VALID,24.675,VALID,297,VALID,0,
2009-07-20, 02:32:04,VALID,1004.22,VALID,0,VALID,89.5631,VALID,0,VALID,24.6361,VALID,297,VALID,0.172656,
2009-07-20, 02:33:04,VALID,1004.24,VALID,0,VALID,89.8377,VALID,0,VALID,24.638,VALID,336,VALID,0.267969,
2009-07-20, 02:34:04,VALID,1004.21,VALID,0,VALID,89.9598,VALID,0,VALID,24.5972,VALID,275,VALID,0.459375,
2009-07-20, 02:35:04,VALID,1004.24,VALID,0,VALID,90.1657,VALID,0,VALID,24.638,VALID,277,VALID,0.549219,
2009-07-20, 02:36:04,VALID,1004.22,VALID,0,VALID,90.0666,VALID,0.100563,VALID,24.6556,VALID,308,VALID,0.325,
2009-07-20, 02:37:04,VALID,1004.22,VALID,0,VALID,89.7843,VALID,0,VALID,24.7159,VALID,317,VALID,0.378516,
2009-07-20, 02:38:04,VALID,1004.23,VALID,0,VALID,89.6165,VALID,0,VALID,24.6945,VALID,317,VALID,0,
2009-07-20, 02:39:04,VALID,1004.23,VALID,0,VALID,89.5554,VALID,0,VALID,24.6945,VALID,317,VALID,0.102344,
2009-07-20, 02:40:04,VALID,1004.19,VALID,0,VALID,89.7004,VALID,0,VALID,24.6964,VALID,317,VALID,0.0195313,
2009-07-20, 02:41:04,VALID,1004.19,VALID,0,VALID,89.769,VALID,0,VALID,24.6945,VALID,317,VALID,0.303516,
2009-07-20, 02:42:04,VALID,1004.21,VALID,0,VALID,89.6546,VALID,0,VALID,24.7353,VALID,317,VALID,0.591016,
2009-07-20, 02:43:04,VALID,1004.21,VALID,0,VALID,89.4105,VALID,0,VALID,24.7548,VALID,318,VALID,0.145313,
2009-07-20, 02:44:04,VALID,1004.22,VALID,0,VALID,89.2579,VALID,0,VALID,24.7335,VALID,242,VALID,0.122656,
2009-07-20, 02:45:04,VALID,1004.22,VALID,0,VALID,89.3266,VALID,0,VALID,24.7761,VALID,243,VALID,0.359766,
2009-07-20, 02:46:04,VALID,1004.22,VALID,0,VALID,89.174,VALID,0.100563,VALID,24.7335,VALID,244,VALID,0.351953,
2009-07-20, 02:47:04,VALID,1004.22,VALID,0,VALID,89.2579,VALID,0,VALID,24.7353,VALID,250,VALID,0.129297,
2009-07-20, 02:48:04,VALID,1004.22,VALID,0,VALID,89.1511,VALID,0,VALID,24.675,VALID,250,VALID,0,
2009-07-20, 02:49:04,VALID,1004.24,VALID,0,VALID,89.502,VALID,0,VALID,24.6361,VALID,309,VALID,0.597266,
2009-07-20, 02:50:04,VALID,1004.25,VALID,0,VALID,89.5936,VALID,0,VALID,24.6574,VALID,332,VALID,0.332031,
2009-07-20, 02:51:04,VALID,1004.24,VALID,0,VALID,89.6622,VALID,0,VALID,24.6166,VALID,324,VALID,0.188281,
2009-07-20, 02:52:04,VALID,1004.22,VALID,0,VALID,89.8072,VALID,0,VALID,24.6185,VALID,321,VALID,0,
2009-07-20, 02:53:04,VALID,1004.21,VALID,0,VALID,89.8224,VALID,0.100563,VALID,24.5777,VALID,308,VALID,0.287109,
2009-07-20, 02:54:04,VALID,1004.2,VALID,0,VALID,89.9826,VALID,0,VALID,24.5796,VALID,306,VALID,1.02422,
2009-07-20, 02:55:04,VALID,1004.21,VALID,0,VALID,90.036,VALID,0,VALID,24.638,VALID,290,VALID,0.767969,
2009-07-20, 02:56:04,VALID,1004.18,VALID,0,VALID,89.8224,VALID,0,VALID,24.6769,VALID,313,VALID,0.684766,
2009-07-20, 02:57:04,VALID,1004.17,VALID,0,VALID,89.6241,VALID,0,VALID,24.6945,VALID,300,VALID,0.301562,
2009-07-20, 02:58:04,VALID,1004.16,VALID,0,VALID,89.4563,VALID,0,VALID,24.714,VALID,299,VALID,0.395703,
2009-07-20, 02:59:04,VALID,1004.18,VALID,0,VALID,89.3494,VALID,0,VALID,24.6964,VALID,299,VALID,0,
2009-07-20, 03:00:04,VALID,1004.17,VALID,0,VALID,89.502,VALID,0,VALID,24.6964,VALID,279,VALID,0.817187,
2009-07-20, 03:01:04,VALID,1004.16,VALID,0,VALID,89.7004,VALID,0,VALID,24.6945,VALID,334,VALID,0.555859,
2009-07-20, 03:02:04,VALID,1004.15,VALID,0,VALID,89.6241,VALID,0,VALID,24.6945,VALID,342,VALID,0.402734,
2009-07-20, 03:03:04,VALID,1004.15,VALID,0,VALID,89.7233,VALID,0,VALID,24.675,VALID,342,VALID,0.351563,
2009-07-20, 03:04:04,VALID,1004.13,VALID,0,VALID,89.8682,VALID,0,VALID,24.6556,VALID,283,VALID,0.340625,
2009-07-20, 03:05:04,VALID,1004.17,VALID,0,VALID,89.7996,VALID,0,VALID,24.6361,VALID,293,VALID,0.00117188,
2009-07-20, 03:06:04,VALID,1004.12,VALID,0,VALID,89.9979,VALID,0,VALID,24.6166,VALID,299,VALID,0.564453,
2009-07-20, 03:07:04,VALID,1004.15,VALID,0,VALID,89.9979,VALID,0,VALID,24.6185,VALID,346,VALID,0.320313,
2009-07-20, 03:08:04,VALID,1004.16,VALID,0,VALID,89.9445,VALID,0,VALID,24.5972,VALID,347,VALID,0.460156,
2009-07-20, 03:09:04,VALID,1004.15,VALID,0,VALID,90.0513,VALID,0,VALID,24.6185,VALID,319,VALID,0.130078,
2009-07-20, 03:10:04,VALID,1004.16,VALID,0,VALID,90.0742,VALID,0,VALID,24.599,VALID,319,VALID,0.0964844,
2009-07-20, 03:11:04,VALID,1004.13,VALID,0,VALID,90.2039,VALID,0,VALID,24.5777,VALID,332,VALID,0.424219,
2009-07-20, 03:12:04,VALID,1004.16,VALID,0,VALID,90.3183,VALID,0,VALID,24.5193,VALID,339,VALID,0,
2009-07-20, 03:13:04,VALID,1004.16,VALID,0,VALID,90.448,VALID,0,VALID,24.5212,VALID,351,VALID,0.81875,
2009-07-20, 03:14:04,VALID,1004.17,VALID,0,VALID,90.6845,VALID,0,VALID,24.4998,VALID,344,VALID,0.317187,
2009-07-20, 03:15:04,VALID,1004.19,VALID,0,VALID,90.6006,VALID,0,VALID,24.4609,VALID,344,VALID,0.00585938,
2009-07-20, 03:16:04,VALID,1004.19,VALID,0,VALID,90.5853,VALID,0,VALID,24.4201,VALID,318,VALID,0.241797,
2009-07-20, 03:17:04,VALID,1004.2,VALID,0,VALID,90.6845,VALID,0,VALID,24.4043,VALID,315,VALID,0.442578,
2009-07-20, 03:18:04,VALID,1004.22,VALID,0,VALID,90.9744,VALID,0,VALID,24.4043,VALID,343,VALID,0.211328,
2009-07-20, 03:19:04,VALID,1004.19,VALID,0,VALID,91.0965,VALID,0,VALID,24.4025,VALID,350,VALID,0.779297,
2009-07-20, 03:20:04,VALID,1004.22,VALID,0,VALID,91.1346,VALID,0.100563,VALID,24.383,VALID,351,VALID,0.0515625,
2009-07-20, 03:21:04,VALID,1004.2,VALID,0,VALID,91.0507,VALID,0.100563,VALID,24.3636,VALID,351,VALID,0,
2009-07-20, 03:22:04,VALID,1004.22,VALID,0,VALID,91.1956,VALID,0.100563,VALID,24.3636,VALID,314,VALID,0.285156,
2009-07-20, 03:23:04,VALID,1004.2,VALID,0,VALID,91.4855,VALID,0,VALID,24.3636,VALID,309,VALID,0.677734,
2009-07-20, 03:24:04,VALID,1004.2,VALID,0,VALID,91.3406,VALID,0.100563,VALID,24.4025,VALID,312,VALID,0.00585938,
2009-07-20, 03:25:04,VALID,1004.19,VALID,0,VALID,91.3101,VALID,0,VALID,24.3812,VALID,291,VALID,0.485938,
2009-07-20, 03:26:04,VALID,1004.18,VALID,0,VALID,91.2567,VALID,0,VALID,24.4414,VALID,302,VALID,0.61875,
2009-07-20, 03:27:04,VALID,1004.16,VALID,0,VALID,91.0278,VALID,0,VALID,24.4822,VALID,304,VALID,0.107813,
2009-07-20, 03:28:04,VALID,1004.14,VALID,0,VALID,90.9363,VALID,0,VALID,24.4609,VALID,360,VALID,0.650391,
2009-07-20, 03:29:04,VALID,1004.12,VALID,0,VALID,90.9515,VALID,0.100563,VALID,24.4414,VALID,2,VALID,0.200391,
2009-07-20, 03:30:04,VALID,1004.16,VALID,0,VALID,90.8371,VALID,0,VALID,24.4414,VALID,2,VALID,0,
2009-07-20, 03:31:04,VALID,1004.17,VALID,0,VALID,90.8447,VALID,0,VALID,24.422,VALID,2,VALID,0,
2009-07-20, 03:32:04,VALID,1004.17,VALID,0,VALID,90.8523,VALID,0,VALID,24.4043,VALID,2,VALID,0,
2009-07-20, 03:33:04,VALID,1004.18,VALID,0,VALID,90.8905,VALID,0.100563,VALID,24.3636,VALID,2,VALID,0.0476562,
2009-07-20, 03:34:04,VALID,1004.2,VALID,0,VALID,90.9286,VALID,0.100563,VALID,24.3459,VALID,2,VALID,0,
2009-07-20, 03:35:04,VALID,1004.19,VALID,0,VALID,91.2414,VALID,0.100563,VALID,24.307,VALID,302,VALID,0.695313,
2009-07-20, 03:36:04,VALID,1004.21,VALID,0,VALID,91.4398,VALID,0.100563,VALID,24.3052,VALID,279,VALID,0.626172,
2009-07-20, 03:37:04,VALID,1004.21,VALID,0,VALID,91.5084,VALID,0,VALID,24.3246,VALID,293,VALID,0.626562,
2009-07-20, 03:38:04,VALID,1004.22,VALID,0,VALID,91.4169,VALID,0.100563,VALID,24.3441,VALID,288,VALID,0.691797,
2009-07-20, 03:39:04,VALID,1004.24,VALID,0,VALID,91.2033,VALID,0,VALID,24.3636,VALID,288,VALID,0.141797,
2009-07-20, 03:40:04,VALID,1004.27,VALID,0,VALID,91.0583,VALID,0,VALID,24.3636,VALID,288,VALID,0,
2009-07-20, 03:41:04,VALID,1004.27,VALID,0,VALID,90.9363,VALID,0,VALID,24.3246,VALID,287,VALID,0.563672,
2009-07-20, 03:42:04,VALID,1004.27,VALID,0,VALID,91.1117,VALID,0.100563,VALID,24.3441,VALID,286,VALID,0.600781,
2009-07-20, 03:43:04,VALID,1004.28,VALID,0,VALID,90.86,VALID,0,VALID,24.2857,VALID,286,VALID,0.0226563,